DW8945 Weather Reports


time (UTC)temp
C
wind
direction
speed
KPH
gust
KPH
rain 1hr
cm
rain 24hr
cm
rain mn
cm
humidity
%
barometer
mb
20260505035414 13 223 1.6 8.0 0.00 0.00 0.00 64 1009.5
20260505034857 13 219 3.2 9.7 0.00 0.00 0.00 64 1009.4
20260505034342 13 223 1.6 11.3 0.00 0.00 0.00 64 1009.4
20260505033849 13 236 4.8 11.3 0.00 0.00 0.00 63 1009.4
20260505033353 13 294 3.2 11.3 0.00 0.00 0.00 63 1009.3
20260505032858 13 290 3.2 16.1 0.00 0.00 0.00 62 1009.3
20260505032345 14 237 4.8 17.7 0.00 0.00 0.00 62 1009.3
20260505031910 14 230 4.8 14.5 0.00 0.00 0.00 62 1009.2
20260505031355 14 225 4.8 14.5 0.00 0.00 0.00 61 1009.2
20260505030922 14 229 4.8 14.5 0.00 0.00 0.00 60 1009.3
20260505030400 14 277 4.8 9.7 0.00 0.00 0.00 60 1009.3
20260505025849 14 271 4.8 9.7 0.00 0.00 0.00 60 1009.2
20260505025354 14 261 1.6 9.7 0.00 0.00 0.00 59 1009.3
20260505024852 14 256 4.8 9.7 0.00 0.00 0.00 58 1009.4
20260505024354 15 229 4.8 9.7 0.00 0.00 0.00 58 1009.4
20260505023859 15 339 1.6 11.3 0.00 0.00 0.00 57 1009.4
20260505023346 15 227 8.0 12.9 0.00 0.00 0.00 57 1009.3
20260505022850 15 286 3.2 12.9 0.00 0.00 0.00 57 1009.4
20260505022355 15 244 3.2 12.9 0.00 0.00 0.00 56 1009.4
20260505021900 15 244 4.8 14.5 0.00 0.00 0.00 56 1009.4
20260505021346 15 236 4.8 12.9 0.00 0.00 0.00 55 1009.4
20260505020850 15 333 6.4 14.5 0.00 0.00 0.00 55 1009.3
20260505020351 15 221 4.8 14.5 0.00 0.00 0.00 55 1009.2
20260505015920 15 223 3.2 17.7 0.00 0.00 0.00 54 1009.2
20260505015345 15 188 8.0 17.7 0.00 0.00 0.00 54 1009.1
20260505014851 15 226 4.8 12.9 0.00 0.00 0.00 53 1009.2
20260505014357 15 273 6.4 14.5 0.00 0.00 0.00 53 1009.2
20260505013846 16 234 6.4 14.5 0.00 0.00 0.00 52 1009.1
20260505013352 16 230 8.0 19.3 0.00 0.00 0.00 52 1009.1
20260505012858 16 256 3.2 19.3 0.00 0.00 0.00 51 1009.0
20260505012346 16 223 8.0 16.1 0.00 0.00 0.00 51 1008.9
20260505011852 16 215 4.8 11.3 0.00 0.00 0.00 51 1008.9
20260505011359 16 230 6.4 14.5 0.00 0.00 0.00 50 1008.8
20260505010905 16 253 8.0 16.1 0.00 0.00 0.00 50 1008.7
20260505010344 16 229 6.4 17.7 0.00 0.00 0.00 50 1008.7
20260505005854 16 223 8.0 24.1 0.00 0.00 0.00 50 1008.6
20260505005342 16 242 9.7 24.1 0.00 0.00 0.00 49 1008.4
20260505004909 17 237 6.4 14.5 0.00 0.00 0.00 49 1008.4
20260505004416 17 234 3.2 14.5 0.00 0.00 0.00 49 1008.3
20260505003843 17 275 6.4 19.3 0.00 0.00 0.00 48 1008.1
20260505003408 17 272 6.4 19.3 0.00 0.00 0.00 48 1008.0
20260505002854 17 211 4.8 12.9 0.00 0.00 0.00 48 1008.0
20260505002342 17 221 6.4 12.9 0.00 0.00 0.00 48 1007.8
20260505001908 17 221 6.4 14.5 0.00 0.00 0.00 47 1007.6
20260505001355 17 254 6.4 14.5 0.00 0.00 0.00 47 1007.5
20260505000842 17 251 8.0 14.5 0.00 0.00 0.00 47 1007.3
20260505000343 18 227 6.4 14.5 0.00 0.00 0.00 47 1007.2
20260504235852 18 220 4.8 12.9 0.00 0.00 0.00 46 1007.1
20260504235358 18 243 6.4 12.9 0.00 0.00 0.00 46 1007.1
20260504234921 18 218 8.0 14.5 0.00 0.00 0.00 46 1007.0
20260504234402 18 236 8.0 17.7 0.00 0.00 0.00 45 1006.9
20260504233846 18 210 9.7 20.9 0.00 0.00 0.00 44 1006.8
20260504233352 18 224 8.0 20.9 0.00 0.00 0.00 44 1006.8
20260504232858 18 254 8.0 22.5 0.00 0.00 0.00 44 1006.7
20260504232344 19 211 11.3 22.5 0.00 0.00 0.00 44 1006.5
20260504231910 19 308 9.7 24.1 0.00 0.00 0.00 43 1006.5
20260504231354 20 246 12.9 24.1 0.00 0.00 0.00 42 1006.4
20260504230841 20 210 8.0 17.7 0.00 0.00 0.00 41 1006.2
20260504230341 20 221 9.7 20.9 0.00 0.00 0.00 40 1006.1
20260504225853 20 270 8.0 22.5 0.00 0.00 0.00 40 1006.0
20260504225340 20 262 12.9 22.5 0.00 0.00 0.00 39 1005.9
20260504224903 20 242 8.0 19.3 0.00 0.00 0.00 38 1005.9
20260504224349 20 228 6.4 20.9 0.00 0.00 0.00 38 1005.7
20260504223855 21 237 8.0 20.9 0.00 0.00 0.00 38 1005.7
20260504223421 21 242 4.8 16.1 0.00 0.00 0.00 37 1005.8
20260504222845 21 244 8.0 22.5 0.00 0.00 0.00 36 1005.7
20260504222352 21 232 11.3 22.5 0.00 0.00 0.00 35 1005.6
20260504221856 22 218 8.0 24.1 0.00 0.00 0.00 35 1005.6
20260504221403 22 252 9.7 16.1 0.00 0.00 0.00 33 1005.6
20260504220850 22 273 8.0 20.9 0.00 0.00 0.00 31 1005.5
20260504220349 22 257 8.0 20.9 0.00 0.00 0.00 31 1005.4
20260504215859 22 278 6.4 20.9 0.00 0.00 0.00 31 1005.5
20260504215343 22 259 11.3 20.9 0.00 0.00 0.00 30 1005.6
20260504214849 23 259 4.8 19.3 0.00 0.00 0.00 30 1005.6
20260504214357 23 276 8.0 25.7 0.00 0.00 0.00 30 1005.6
20260504213844 23 327 6.4 16.1 0.00 0.00 0.00 30 1005.6
20260504213346 23 299 4.8 19.3 0.00 0.00 0.00 30 1005.6
20260504212910 23 226 9.7 19.3 0.00 0.00 0.00 30 1005.5
20260504212355 22 276 4.8 17.7 0.00 0.00 0.00 31 1005.5
20260504211857 22 281 6.4 19.3 0.00 0.00 0.00 30 1005.5
20260504211345 22 355 8.0 17.7 0.00 0.00 0.00 31 1005.5
20260504210912 23 289 8.0 24.1 0.00 0.00 0.00 30 1005.5
20260504210349 23 263 9.7 24.1 0.00 0.00 0.00 29 1005.6
20260504205858 23 321 3.2 16.1 0.00 0.00 0.00 30 1005.5
20260504205342 23 311 8.0 22.5 0.00 0.00 0.00 29 1005.6
20260504204846 23 301 11.3 22.5 0.00 0.00 0.00 29 1005.5
20260504204351 23 254 8.0 20.9 0.00 0.00 0.00 29 1005.6
20260504203858 23 287 8.0 22.5 0.00 0.00 0.00 29 1005.7
20260504203343 23 248 9.7 22.5 0.00 0.00 0.00 29 1005.6
20260504202850 23 302 6.4 27.4 0.00 0.00 0.00 29 1005.6
20260504202355 23 269 8.0 29.0 0.00 0.00 0.00 29 1005.6
20260504201919 23 243 9.7 29.0 0.00 0.00 0.00 29 1005.6
20260504201344 23 276 9.7 19.3 0.00 0.00 0.00 29 1005.7
20260504200850 23 333 8.0 20.9 0.00 0.00 0.00 29 1005.6
20260504200350 23 294 11.3 20.9 0.00 0.00 0.00 28 1005.8
20260504195839 23 270 4.8 19.3 0.00 0.00 0.00 29 1005.9
20260504195347 22 248 11.3 20.9 0.00 0.00 0.00 28 1005.8
20260504194848 23 324 8.0 22.5 0.00 0.00 0.00 28 1005.7
20260504194415 22 336 9.7 25.7 0.00 0.00 0.00 28 1005.8
20260504193900 22 328 9.7 24.1 0.00 0.00 0.00 28 1005.8
20260504193345 22 250 11.3 24.1 0.00 0.00 0.00 28 1005.9
20260504192912 22 320 8.0 20.9 0.00 0.00 0.00 28 1005.8
20260504192355 22 302 6.4 22.5 0.00 0.00 0.00 28 1005.9
20260504191900 22 304 8.0 22.5 0.00 0.00 0.00 28 1005.8
20260504191347 22 273 11.3 29.0 0.00 0.00 0.00 27 1005.9
20260504190853 22 232 12.9 29.0 0.00 0.00 0.00 27 1006.0
20260504190355 22 265 11.3 25.7 0.00 0.00 0.00 28 1006.1
20260504185844 22 284 8.0 19.3 0.00 0.00 0.00 28 1006.1
20260504185349 22 26 6.4 25.7 0.00 0.00 0.00 28 1006.1
20260504184915 22 279 11.3 25.7 0.00 0.00 0.00 28 1006.2
20260504184419 22 278 11.3 25.7 0.00 0.00 0.00 27 1006.2
20260504183902 22 248 9.7 27.4 0.00 0.00 0.00 28 1006.2
20260504183345 22 275 6.4 20.9 0.00 0.00 0.00 28 1006.2
20260504182853 22 255 11.3 20.9 0.00 0.00 0.00 28 1006.3
20260504182359 22 291 11.3 25.7 0.00 0.00 0.00 28 1006.4
20260504181903 22 312 11.3 25.7 0.00 0.00 0.00 28 1006.4
20260504181349 22 279 8.0 37.0 0.00 0.00 0.00 29 1006.3
20260504180854 22 282 14.5 37.0 0.00 0.00 0.00 28 1006.5
20260504180354 22 239 8.0 24.1 0.00 0.00 0.00 28 1006.4
20260504175846 22 306 9.7 22.5 0.00 0.00 0.00 29 1006.6
20260504175410 22 238 9.7 17.7 0.00 0.00 0.00 29 1006.6
20260504174851 21 294 4.8 16.1 0.00 0.00 0.00 30 1006.6
20260504174416 21 309 8.0 22.5 0.00 0.00 0.00 29 1006.6
20260504173856 21 256 8.0 22.5 0.00 0.00 0.00 30 1006.8
20260504173357 21 313 6.4 29.0 0.00 0.00 0.00 30 1006.7
20260504172902 21 9 14.5 35.4 0.00 0.00 0.00 30 1006.8
20260504172346 21 294 14.5 35.4 0.00 0.00 0.00 30 1006.8
20260504171851 21 321 12.9 25.7 0.00 0.00 0.00 30 1006.8
20260504171359 21 298 9.7 27.4 0.00 0.00 0.00 30 1006.7
20260504170924 21 205 11.3 27.4 0.00 0.00 0.00 30 1006.7
20260504170403 21 306 9.7 24.1 0.00 0.00 0.00 31 1006.9
20260504160412 20 276 8.0 32.2 0.00 0.00 0.00 34 1007.5
20260504150902 20 261 9.7 24.1 0.00 0.00 0.00 34 1008.1
20260504150402 20 298 12.9 24.1 0.00 0.00 0.00 34 1008.1
20260504140903 17 315 6.4 22.5 0.00 0.00 0.00 39 1008.6
20260504140342 17 300 8.0 19.3 0.00 0.00 0.00 39 1008.6
20260504130350 15 291 8.0 24.1 0.00 0.00 0.00 45 1009.5
20260504110404 9 256 1.6 6.4 0.00 0.00 0.00 58 1009.8
20260504100344 7 344 1.6 3.2 0.00 0.00 0.00 62 1009.8
20260504081851 7 331 0.0 0.0 0.00 0.00 0.00 64 1009.7
20260504081359 7 331 0.0 0.0 0.00 0.00 0.00 64 1009.6
20260504080846 7 331 0.0 0.0 0.00 0.00 0.00 66 1009.7
20260504080408 6 331 0.0 0.0 0.00 0.00 0.00 66 1009.6
20260504070357 6 331 0.0 0.0 0.00 0.00 0.00 72 1009.7
20260504050351 4 331 0.0 0.0 0.00 0.00 0.00 72 1009.7
20260504045921 4 331 0.0 0.0 0.00 0.00 0.00 72 1009.6
20260504045345 4 331 0.0 1.6 0.00 0.00 0.00 72 1009.6
20260504044850 4 331 0.0 1.6 0.00 0.00 0.00 72 1009.7
20260504044355 5 331 0.0 1.6 0.00 0.00 0.00 71 1009.6
20260504043921 5 331 0.0 3.2 0.00 0.00 0.00 71 1009.6
20260504043343 5 331 0.0 0.0 0.00 0.00 0.00 70 1009.7
20260504042909 5 331 0.0 0.0 0.00 0.00 0.00 70 1009.6
20260504042354 5 331 0.0 0.0 0.00 0.00 0.00 69 1009.5
20260504041855 5 331 0.0 0.0 0.00 0.00 0.00 69 1009.6
20260504041359 5 331 0.0 0.0 0.00 0.00 0.00 69 1009.6
20260504040903 5 331 0.0 0.0 0.00 0.00 0.00 69 1009.5
20260504040357 5 331 0.0 0.0 0.00 0.00 0.00 69 1009.4
20260504035901 5 331 0.0 1.6 0.00 0.00 0.00 69 1009.4